GW5711 Weather Reports


time (UTC)temp
C
wind
direction
speed
KPH
gust
KPH
rain 1hr
cm
rain 24hr
cm
rain mn
cm
humidity
%
barometer
mb
20260504033527 10 189 0.0 0.0 0.00 0.00 0.00 48 1017.4
20260504033024 10 190 0.0 0.0 0.00 0.00 0.00 56 1017.1
20260504032521 10 184 0.0 0.0 0.00 0.00 0.00 58 1017.2
20260504032017 10 184 0.0 0.0 0.00 0.00 0.00 51 1017.0
20260504031514 10 187 0.0 0.0 0.00 0.00 0.00 53 1017.1
20260504031010 10 189 0.0 0.0 0.00 0.00 0.00 51 1017.0
20260504030508 10 183 0.0 0.0 0.00 0.00 0.00 54 1017.2
20260504030004 10 184 0.0 0.0 0.00 0.00 0.00 55 1017.2
20260504025501 10 183 0.0 0.0 0.00 0.00 0.00 55 1017.1
20260504024958 10 183 0.0 0.0 0.00 0.00 0.00 55 1017.3
20260504024454 10 183 0.0 0.0 0.00 0.00 0.00 57 1017.2
20260504023952 9 196 0.0 0.0 0.00 0.00 0.00 54 1017.2
20260504023449 9 209 0.0 0.0 0.00 0.00 0.00 57 1017.2
20260504022944 10 182 0.0 0.0 0.00 0.00 0.00 49 1017.2
20260504022440 10 181 0.0 0.0 0.00 0.00 0.00 48 1017.1
20260504021937 9 183 0.0 0.0 0.00 0.00 0.00 50 1017.3
20260504021434 8 181 0.0 0.0 0.00 0.00 0.00 52 1017.1
20260504020931 8 181 0.0 0.0 0.00 0.00 0.00 52 1017.2
20260504020428 8 181 0.0 0.0 0.00 0.00 0.00 51 1017.0
20260504015925 8 181 0.0 0.0 0.00 0.00 0.00 51 1016.9
20260504015421 8 181 0.0 0.0 0.00 0.00 0.00 52 1016.7
20260504014917 9 181 0.0 0.0 0.00 0.00 0.00 51 1016.7
20260504014413 9 181 0.0 0.0 0.00 0.00 0.00 51 1016.9
20260504013910 8 181 0.0 0.0 0.00 0.00 0.00 50 1016.7
20260504013408 8 181 0.0 0.0 0.00 0.00 0.00 52 1016.8
20260504012904 8 181 0.0 0.0 0.00 0.00 0.00 51 1016.8
20260504012402 8 176 0.0 0.0 0.00 0.00 0.00 51 1016.6
20260504011859 8 169 0.0 0.0 0.00 0.00 0.00 53 1016.6
20260504011356 8 169 0.0 0.0 0.00 0.00 0.00 52 1016.5
20260504010852 8 169 0.0 0.0 0.00 0.00 0.00 51 1016.4
20260504010348 8 169 0.0 0.0 0.00 0.00 0.00 51 1016.1
20260504005844 9 169 0.0 0.0 0.00 0.00 0.00 49 1016.4
20260504005341 9 169 0.0 0.0 0.00 0.00 0.00 50 1016.4
20260504004839 9 169 0.0 0.0 0.00 0.00 0.00 49 1016.1
20260504004336 10 169 0.0 0.0 0.00 0.00 0.00 48 1016.3
20260504003833 10 169 0.0 0.0 0.00 0.00 0.00 47 1016.4
20260504003330 10 170 0.0 0.0 0.00 0.00 0.00 46 1016.3
20260504002826 10 166 0.0 0.0 0.00 0.00 0.00 45 1016.1
20260504002323 11 173 0.0 0.0 0.00 0.00 0.00 44 1016.1
20260504001821 11 140 0.0 0.0 0.00 0.00 0.00 46 1016.1
20260504001318 11 167 0.0 0.0 0.00 0.00 0.00 41 1016.1
20260504000815 12 155 0.0 0.0 0.00 0.00 0.00 41 1015.9
20260504000312 12 154 0.0 0.0 0.00 0.00 0.00 40 1016.0
20260503235810 13 110 0.0 0.0 0.00 0.00 0.00 40 1015.9
20260503235307 14 198 1.6 1.6 0.00 0.00 0.00 33 1016.0
20260503234804 14 226 1.6 1.6 0.00 0.00 0.00 32 1016.0
20260503234302 15 197 0.0 0.0 0.00 0.00 0.00 32 1015.8
20260503233800 15 193 1.6 1.6 0.00 0.00 0.00 32 1016.1
20260503233255 15 187 1.6 1.6 0.00 0.00 0.00 32 1015.7
20260503232752 15 226 1.6 1.6 0.00 0.00 0.00 31 1015.8
20260503232250 15 237 3.2 3.2 0.00 0.00 0.00 31 1015.7
20260503231747 15 196 0.0 1.6 0.00 0.00 0.00 31 1015.8
20260503231244 15 219 0.0 1.6 0.00 0.00 0.00 31 1015.7
20260503230739 15 168 0.0 0.0 0.00 0.00 0.00 31 1015.6
20260503230237 15 274 3.2 3.2 0.00 0.00 0.00 30 1015.7
20260503225735 15 212 1.6 3.2 0.00 0.00 0.00 31 1015.7
20260503225235 15 189 1.6 1.6 0.00 0.00 0.00 30 1015.6
20260503224732 15 47 1.6 3.2 0.00 0.00 0.00 30 1015.7
20260503224230 16 182 1.6 1.6 0.00 0.00 0.00 30 1015.7
20260503223727 16 189 1.6 3.2 0.00 0.00 0.00 30 1015.8
20260503223225 16 225 3.2 3.2 0.00 0.00 0.00 28 1015.8
20260503222721 16 253 1.6 3.2 0.00 0.00 0.00 28 1015.9
20260503222219 16 182 0.0 0.0 0.00 0.00 0.00 29 1015.7
20260503221717 16 171 0.0 1.6 0.00 0.00 0.00 29 1015.6
20260503221214 16 264 1.6 1.6 0.00 0.00 0.00 28 1015.7
20260503220711 16 280 3.2 3.2 0.00 0.00 0.00 27 1015.8
20260503220208 16 201 4.8 4.8 0.00 0.00 0.00 30 1015.6
20260503215704 16 129 0.0 0.0 0.00 0.00 0.00 28 1016.0
20260503215201 16 225 4.8 4.8 0.00 0.00 0.00 27 1015.8
20260503214700 16 213 0.0 3.2 0.00 0.00 0.00 31 1016.0
20260503214155 16 345 1.6 3.2 0.00 0.00 0.00 31 1015.8
20260503213655 16 257 1.6 3.2 0.00 0.00 0.00 28 1015.9
20260503213151 16 193 3.2 4.8 0.00 0.00 0.00 28 1016.1
20260503212648 16 272 1.6 3.2 0.00 0.00 0.00 28 1015.8
20260503212146 16 195 4.8 4.8 0.00 0.00 0.00 28 1016.0
20260503211643 16 183 3.2 3.2 0.00 0.00 0.00 29 1016.0
20260503211138 16 181 1.6 1.6 0.00 0.00 0.00 28 1016.0
20260503210635 16 301 3.2 4.8 0.00 0.00 0.00 30 1015.9
20260503210132 16 283 4.8 4.8 0.00 0.00 0.00 33 1016.0
20260503205628 16 190 3.2 3.2 0.00 0.00 0.00 28 1016.1
20260503205124 16 284 3.2 3.2 0.00 0.00 0.00 27 1016.3
20260503204621 16 329 1.6 3.2 0.00 0.00 0.00 29 1016.0
20260503204119 16 154 0.0 1.6 0.00 0.00 0.00 30 1016.1
20260503203615 16 170 0.0 0.0 0.00 0.00 0.00 29 1016.1
20260503203113 16 218 4.8 8.0 0.00 0.00 0.00 28 1016.3
20260503202610 16 346 4.8 4.8 0.00 0.00 0.00 28 1016.3
20260503202108 16 170 1.6 1.6 0.00 0.00 0.00 29 1016.1
20260503201606 16 92 0.0 1.6 0.00 0.00 0.00 29 1016.3
20260503201103 16 332 4.8 8.0 0.00 0.00 0.00 31 1016.5
20260503200559 16 131 4.8 8.0 0.00 0.00 0.00 32 1016.5
20260503200056 16 331 1.6 1.6 0.00 0.00 0.00 34 1016.5
20260503195553 15 21 3.2 3.2 0.00 0.00 0.00 31 1016.7
20260503195050 15 126 1.6 1.6 0.00 0.00 0.00 29 1016.8
20260503194547 16 290 1.6 1.6 0.00 0.00 0.00 31 1016.9
20260503194046 15 129 1.6 3.2 0.00 0.00 0.00 33 1017.0
20260503193544 15 303 0.0 1.6 0.00 0.00 0.00 31 1017.1
20260503193044 15 275 9.7 11.3 0.00 0.00 0.00 35 1017.0
20260503192541 15 344 4.8 4.8 0.00 0.00 0.00 38 1017.0
20260503192037 15 169 0.0 0.0 0.00 0.00 0.00 35 1017.2
20260503191534 15 123 0.0 0.0 0.00 0.00 0.00 32 1017.2
20260503191031 15 304 1.6 4.8 0.00 0.00 0.00 33 1017.4
20260503190528 15 226 4.8 8.0 0.00 0.00 0.00 31 1017.5
20260503190025 15 325 3.2 3.2 0.00 0.00 0.00 38 1017.5
20260503185521 15 166 6.4 8.0 0.00 0.00 0.00 32 1017.5
20260503185020 16 235 3.2 3.2 0.00 0.00 0.00 31 1017.7
20260503184517 16 98 1.6 1.6 0.00 0.00 0.00 33 1018.0
20260503184013 16 205 1.6 1.6 0.00 0.00 0.00 36 1018.0
20260503183510 15 332 4.8 4.8 0.00 0.00 0.00 34 1017.9
20260503183007 15 339 4.8 8.0 0.00 0.00 0.00 38 1018.0
20260503182506 15 138 0.0 0.0 0.00 0.00 0.00 38 1017.9
20260503182004 15 309 1.6 3.2 0.00 0.00 0.00 33 1018.0
20260503181500 15 161 1.6 3.2 0.00 0.00 0.00 36 1018.3
20260503180956 15 253 6.4 9.7 0.00 0.00 0.00 38 1018.0
20260503180454 15 53 3.2 3.2 0.00 0.00 0.00 39 1018.2
20260503175951 14 212 3.2 3.2 0.00 0.00 0.00 36 1018.1
20260503175449 15 235 0.0 0.0 0.00 0.00 0.00 36 1018.2
20260503174944 14 89 1.6 1.6 0.00 0.00 0.00 38 1018.2
20260503174443 13 134 3.2 3.2 0.00 0.00 0.00 34 1018.2
20260503173938 13 160 6.4 8.0 0.00 0.00 0.00 36 1018.3
20260503173434 14 221 12.9 14.5 0.00 0.00 0.00 35 1018.3
20260503172931 15 220 1.6 3.2 0.00 0.00 0.00 38 1018.3
20260503172428 14 215 4.8 4.8 0.00 0.00 0.00 38 1018.5
20260503171924 14 323 1.6 3.2 0.00 0.00 0.00 36 1018.5
20260503171421 13 142 1.6 1.6 0.00 0.00 0.00 38 1018.6
20260503170919 13 205 4.8 4.8 0.00 0.00 0.00 38 1018.6
20260503170415 14 125 1.6 3.2 0.00 0.00 0.00 38 1018.7
20260503150807 11 39 8.0 9.7 0.00 0.00 0.00 41 1020.2
20260503150303 11 170 3.2 4.8 0.00 0.00 0.00 42 1020.0
20260503140228 10 182 3.2 3.2 0.00 0.00 0.00 44 1020.1
20260503131157 8 350 3.2 4.8 0.00 0.00 0.00 48 1019.8
20260503130654 8 345 4.8 4.8 0.00 0.00 0.00 50 1019.7
20260503130152 8 338 4.8 4.8 0.00 0.00 0.00 49 1020.0
20260503120117 7 147 0.0 0.0 0.00 0.00 0.00 57 1019.5
20260503110544 4 16 4.8 8.0 0.00 0.00 0.00 60 1019.0
20260503090431 5 185 0.0 0.0 0.00 0.00 0.00 55 1017.2
20260503081358 5 187 0.0 1.6 0.00 0.00 0.00 58 1016.8
20260503080855 5 248 1.6 3.2 0.00 0.00 0.00 55 1016.8
20260503080352 5 272 0.0 0.0 0.00 0.00 0.00 57 1016.8
20260503072828 5 161 0.0 0.0 0.00 0.00 0.00 63 1016.6
20260503072325 5 189 3.2 3.2 0.00 0.00 0.00 64 1016.6
20260503071821 5 174 0.0 0.0 0.00 0.00 0.00 66 1016.5
20260503071319 4 194 1.6 3.2 0.00 0.00 0.00 66 1016.4
20260503070815 4 181 0.0 0.0 0.00 0.00 0.00 66 1016.4
20260503070313 4 135 0.0 0.0 0.00 0.00 0.00 66 1016.3
20260503060238 5 53 0.0 0.0 0.00 0.00 0.00 59 1016.4
20260503054725 5 337 6.4 8.0 0.00 0.00 0.00 61 1016.1
20260503054222 3 114 4.8 4.8 0.00 0.00 0.00 66 1016.1
20260503053720 3 2 0.0 0.0 0.00 0.00 0.00 65 1016.3
20260503053219 3 139 0.0 0.0 0.00 0.00 0.00 66 1016.4
20260503052714 4 137 0.0 0.0 0.00 0.00 0.00 64 1016.4
20260503052211 4 177 0.0 0.0 0.00 0.00 0.00 64 1016.5
20260503051706 4 177 0.0 0.0 0.00 0.00 0.00 65 1016.3
20260503051204 4 185 0.0 0.0 0.00 0.00 0.00 65 1016.1
20260503050701 4 167 0.0 0.0 0.00 0.00 0.00 65 1016.1
20260503050158 4 177 0.0 0.0 0.00 0.00 0.00 65 1016.3
20260503045655 4 179 0.0 0.0 0.00 0.00 0.00 64 1016.1
20260503045153 5 144 0.0 0.0 0.00 0.00 0.00 66 1016.1
20260503044649 5 175 0.0 0.0 0.00 0.00 0.00 61 1016.0
20260503044146 5 183 0.0 0.0 0.00 0.00 0.00 59 1016.1
20260503043643 5 169 0.0 0.0 0.00 0.00 0.00 59 1016.0
20260503043140 6 129 0.0 0.0 0.00 0.00 0.00 59 1016.5
20260503042636 6 182 0.0 0.0 0.00 0.00 0.00 56 1016.3
20260503042133 6 175 0.0 0.0 0.00 0.00 0.00 56 1016.1
20260503041629 6 174 0.0 0.0 0.00 0.00 0.00 56 1016.3
20260503041127 6 165 0.0 0.0 0.00 0.00 0.00 55 1016.3
20260503040624 6 135 0.0 0.0 0.00 0.00 0.00 55 1016.3
20260503040121 7 135 0.0 0.0 0.00 0.00 0.00 54 1016.3
20260503035617 7 124 0.0 0.0 0.00 0.00 0.00 55 1016.1
20260503035115 7 128 0.0 0.0 0.00 0.00 0.00 54 1016.0
20260503034612 7 124 0.0 0.0 0.00 0.00 0.00 53 1016.3
20260503034110 7 105 0.0 0.0 0.00 0.00 0.00 53 1016.1